QPF
0.01 0.01 0.02 0.03 0.04 0.04 0.05 0.05 0.05 0.05 0.06 0.08 0.09 0.09 0.08 0.07 0.05 0.03 0.03 0.04 0.04 0.04 0.04 0.05 0.07 0.07 0.08 0.08 0.08 0.07 0.07 0.06 0.07 0.06 0.05 0.04 0.05 0.06 0.06 0.06 0.06 0.06 0.06
0.03 0.02 0.02 0.02 0.02 0.02 0.04 0.04 0.04 0.05 0.07 0.08 0.08 0.09 0.10 0.10 0.09 0.07 0.04 0.04 0.03 0.04 0.06 0.06 0.07 0.08 0.09 0.09 0.09 0.07 0.06 0.05 0.05 0.05 0.04 0.03 0.03 0.04 0.05 0.05 0.05 0.06 0.06
0.04 0.02 0.01 0.01 0.01 0.01 0.01 0.02 0.04 0.05 0.05 0.06 0.07 0.09 0.11 0.12 0.12 0.10 0.08 0.06 0.04 0.03 0.05 0.06 0.07 0.08 0.08 0.09 0.09 0.08 0.07 0.05 0.04 0.03 0.03 0.03 0.03 0.05 0.06 0.05 0.05 0.05 0.05
0.04 0.02 0.01 0.01 0.00 0.00 0.01 0.01 0.03 0.03 0.04 0.04 0.06 0.07 0.08 0.09 0.10 0.09 0.08 0.06 0.04 0.03 0.04 0.06 0.07 0.08 0.08 0.07 0.08 0.08 0.07 0.06 0.04 0.03 0.03 0.03 0.03 0.04 0.05 0.05 0.05 0.04 0.04
0.04 0.03 0.02 0.01 0.01 0.01 0.01 0.01 0.02 0.03 0.03 0.03 0.06 0.08 0.08 0.07 0.07 0.07 0.06 0.05 0.05 0.04 0.03 0.05 0.07 0.07 0.08 0.07 0.07 0.07 0.07 0.06 0.05 0.04 0.03 0.03 0.03 0.03 0.03 0.04 0.05 0.04 0.04
0.06 0.05 0.05 0.04 0.02 0.02 0.01 0.01 0.02 0.03 0.03 0.04 0.04 0.06 0.06 0.06 0.06 0.06 0.06 0.05 0.04 0.04 0.03 0.03 0.05 0.07 0.08 0.08 0.07 0.07 0.07 0.06 0.05 0.05 0.04 0.03 0.03 0.02 0.02 0.03 0.04 0.04 0.04
0.09 0.08 0.08 0.08 0.07 0.04 0.02 0.01 0.02 0.03 0.03 0.04 0.05 0.05 0.04 0.04 0.04 0.05 0.06 0.06 0.05 0.04 0.04 0.03 0.04 0.04 0.04 0.06 0.07 0.07 0.07 0.06 0.05 0.05 0.04 0.04 0.03 0.02 0.02 0.02 0.03 0.03 0.04
0.08 0.08 0.07 0.06 0.06 0.05 0.03 0.02 0.02 0.02 0.03 0.04 0.04 0.05 0.04 0.04 0.04 0.04 0.05 0.07 0.06 0.05 0.04 0.03 0.02 0.02 0.03 0.03 0.03 0.05 0.06 0.06 0.06 0.05 0.04 0.04 0.04 0.03 0.03 0.03 0.03 0.03 0.03
0.03 0.02 0.03 0.03 0.03 0.03 0.03 0.03 0.03 0.02 0.02 0.02 0.03 0.05 0.06 0.06 0.05 0.05 0.04 0.05 0.06 0.05 0.04 0.03 0.03 0.03 0.03 0.03 0.01 0.01 0.04 0.05 0.06 0.06 0.07 0.05 0.04 0.03 0.03 0.03 0.03 0.02 0.03
0.02 0.02 0.02 0.02 0.03 0.03 0.03 0.03 0.03 0.02 0.01 0.02 0.03 0.04 0.05 0.05 0.06 0.07 0.06 0.06 0.05 0.05 0.05 0.04 0.03 0.03 0.02 0.03 0.03 0.01 0.03 0.03 0.04 0.06 0.07 0.07 0.06 0.05 0.04 0.03 0.03 0.03 0.03
0.02 0.02 0.01 0.01 0.02 0.03 0.04 0.03 0.03 0.02 0.02 0.03 0.03 0.03 0.04 0.04 0.04 0.05 0.07 0.07 0.07 0.05 0.04 0.04 0.02 0.02 0.03 0.03 0.04 0.03 0.03 0.03 0.03 0.04 0.06 0.06 0.06 0.05 0.05 0.05 0.04 0.04 0.03
0.02 0.02 0.03 0.03 0.03 0.04 0.05 0.04 0.03 0.03 0.03 0.04 0.05 0.05 0.04 0.03 0.03 0.04 0.05 0.06 0.08 0.07 0.04 0.03 0.03 0.02 0.03 0.03 0.03 0.03 0.04 0.04 0.03 0.03 0.04 0.05 0.05 0.06 0.06 0.06 0.05 0.04 0.04
0.01 0.02 0.03 0.03 0.03 0.03 0.04 0.04 0.04 0.03 0.03 0.04 0.05 0.05 0.04 0.03 0.02 0.03 0.04 0.05 0.06 0.05 0.05 0.04 0.03 0.03 0.04 0.05 0.04 0.04 0.04 0.04 0.04 0.03 0.03 0.04 0.04 0.05 0.05 0.06 0.05 0.05 0.05
0.02 0.03 0.04 0.04 0.04 0.05 0.05 0.05 0.04 0.04 0.04 0.05 0.06 0.06 0.05 0.04 0.03 0.03 0.03 0.04 0.06 0.05 0.04 0.04 0.03 0.03 0.03 0.04 0.05 0.05 0.04 0.05 0.05 0.04 0.03 0.03 0.03 0.03 0.05 0.06 0.06 0.05 0.05
0.02 0.03 0.03 0.03 0.06 0.07 0.09 0.08 0.06 0.05 0.05 0.06 0.06 0.06 0.05 0.04 0.03 0.02 0.02 0.03 0.05 0.07 0.05 0.04 0.04 0.03 0.03 0.02 0.05 0.07 0.07 0.09 0.08 0.07 0.05 0.04 0.03 0.03 0.03 0.05 0.05 0.04 0.03
0.04 0.07 0.05 0.04 0.06 0.08 0.11 0.12 0.11 0.09 0.08 0.07 0.07 0.07 0.05 0.04 0.03 0.02 0.02 0.02 0.03 0.03 0.04 0.03 0.03 0.03 0.03 0.02 0.02 0.03 0.04 0.06 0.06 0.07 0.08 0.07 0.06 0.05 0.05 0.05 0.05 0.05 0.04
0.07 0.09 0.06 0.04 0.05 0.06 0.08 0.09 0.10 0.10 0.09 0.07 0.06 0.05 0.05 0.04 0.03 0.02 0.01 0.01 0.02 0.02 0.03 0.04 0.04 0.04 0.03 0.02 0.02 0.02 0.03 0.04 0.04 0.05 0.05 0.05 0.06 0.06 0.05 0.06 0.05 0.05 0.04
0.08 0.08 0.06 0.05 0.05 0.06 0.06 0.05 0.07 0.07 0.07 0.04 0.03 0.03 0.03 0.03 0.03 0.02 0.02 0.02 0.02 0.03 0.04 0.04 0.05 0.05 0.05 0.04 0.03 0.03 0.03 0.03 0.03 0.05 0.04 0.04 0.04 0.04 0.04 0.04 0.04 0.04 0.03
0.06 0.06 0.04 0.03 0.03 0.03 0.03 0.04 0.04 0.04 0.04 0.03 0.02 0.02 0.02 0.02 0.03 0.03 0.02 0.02 0.02 0.03 0.03 0.04 0.06 0.05 0.04 0.04 0.05 0.05 0.04 0.03 0.03 0.04 0.04 0.04 0.04 0.03 0.04 0.04 0.04 0.04 0.04
0.05 0.04 0.03 0.01 0.01 0.01 0.02 0.02 0.02 0.02 0.02 0.02 0.02 0.02 0.02 0.02 0.02 0.03 0.04 0.03 0.02 0.02 0.02 0.03 0.05 0.05 0.04 0.03 0.02 0.04 0.05 0.04 0.04 0.04 0.04 0.04 0.04 0.04 0.03 0.04 0.04 0.04 0.03
0.05 0.04 0.03 0.02 0.01 0.01 0.01 0.02 0.01 0.01 0.01 0.02 0.02 0.02 0.03 0.03 0.04 0.03 0.03 0.03 0.02 0.02 0.02 0.02 0.03 0.03 0.02 0.02 0.01 0.01 0.02 0.04 0.04 0.05 0.05 0.05 0.04 0.03 0.03 0.03 0.03 0.03 0.04
0.04 0.03 0.02 0.02 0.01 0.01 0.01 0.01 0.01 0.01 0.01 0.01 0.01 0.02 0.02 0.03 0.03 0.03 0.03 0.02 0.02 0.02 0.02 0.01 0.02 0.02 0.02 0.02 0.01 0.01 0.01 0.01 0.02 0.02 0.03 0.04 0.04 0.03 0.02 0.02 0.02 0.02 0.02
0.02 0.01 0.01 0.01 0.01 0.01 0.01 0.01 0.01 0.00 0.00 0.01 0.01 0.01 0.02 0.02 0.02 0.02 0.02 0.02 0.02 0.02 0.02 0.02 0.02 0.01 0.01 0.01 0.01 0.01 0.01 0.01 0.01 0.01 0.02 0.02 0.03 0.03 0.02 0.02 0.02 0.01 0.01
0.02 0.01 0.01 0.01 0.01 0.01 0.01 0.01 0.00 0.00 0.00 0.00 0.01 0.01 0.02 0.03 0.04 0.03 0.02 0.02 0.02 0.01 0.02 0.02 0.02 0.02 0.02 0.02 0.03 0.02 0.02 0.01 0.02 0.02 0.02 0.02 0.01 0.01 0.02 0.02 0.02 0.01 0.01
0.01 0.02 0.01 0.01 0.01 0.01 0.01 0.01 0.01 0.01 0.00 0.00 0.00 0.01 0.03 0.06 0.06 0.04 0.02 0.02 0.02 0.01 0.01 0.02 0.02 0.02 0.02 0.02 0.03 0.04 0.04 0.03 0.03 0.02 0.02 0.02 0.02 0.01 0.01 0.01 0.01 0.01 0.01
0.00 0.01 0.01 0.01 0.01 0.01 0.01 0.01 0.01 0.01 0.02 0.01 0.01 0.02 0.06 0.07 0.04 0.03 0.03 0.02 0.02 0.02 0.01 0.01 0.02 0.02 0.01 0.01 0.02 0.03 0.03 0.03 0.02 0.02 0.02 0.02 0.02 0.02 0.02 0.02 0.01 0.01 0.00
MSLP
1008.40 1008.05 1007.65 1007.22 1006.81 1006.42 1006.06 1005.72 1005.41 1005.12 1004.84 1004.59 1004.42 1004.35 1004.42 1004.66 1005.07 1005.63 1006.28 1006.97 1007.62 1008.19 1008.64 1008.98 1009.22 1009.42 1009.63 1009.90 1010.26 1010.72 1011.26 1011.86 1012.50 1013.13 1013.73 1014.29 1014.81 1015.30 1015.77 1016.22 1016.66 1017.10 1017.53
1008.46 1008.11 1007.71 1007.29 1006.87 1006.48 1006.11 1005.76 1005.43 1005.11 1004.80 1004.53 1004.31 1004.19 1004.21 1004.38 1004.70 1005.17 1005.74 1006.35 1006.95 1007.49 1007.94 1008.30 1008.59 1008.85 1009.11 1009.42 1009.81 1010.28 1010.83 1011.43 1012.07 1012.71 1013.33 1013.92 1014.47 1014.98 1015.46 1015.92 1016.36 1016.79 1017.21
1008.41 1008.07 1007.69 1007.30 1006.92 1006.55 1006.20 1005.86 1005.53 1005.19 1004.87 1004.58 1004.33 1004.17 1004.13 1004.22 1004.45 1004.81 1005.26 1005.77 1006.28 1006.76 1007.19 1007.57 1007.89 1008.20 1008.52 1008.88 1009.31 1009.80 1010.36 1010.97 1011.61 1012.26 1012.89 1013.49 1014.06 1014.59 1015.09 1015.56 1016.00 1016.43 1016.85
1008.26 1007.94 1007.60 1007.26 1006.92 1006.60 1006.28 1005.96 1005.64 1005.31 1004.99 1004.68 1004.42 1004.23 1004.13 1004.14 1004.27 1004.52 1004.85 1005.23 1005.64 1006.05 1006.44 1006.81 1007.16 1007.51 1007.88 1008.30 1008.77 1009.29 1009.86 1010.48 1011.11 1011.75 1012.38 1012.98 1013.56 1014.11 1014.63 1015.11 1015.57 1016.01 1016.44
1008.04 1007.74 1007.45 1007.16 1006.88 1006.60 1006.32 1006.03 1005.73 1005.42 1005.10 1004.80 1004.52 1004.31 1004.17 1004.12 1004.17 1004.30 1004.52 1004.78 1005.09 1005.41 1005.75 1006.09 1006.45 1006.84 1007.25 1007.71 1008.21 1008.76 1009.34 1009.94 1010.57 1011.19 1011.81 1012.41 1012.99 1013.55 1014.08 1014.58 1015.06 1015.52 1015.96
1007.83 1007.55 1007.29 1007.04 1006.81 1006.58 1006.34 1006.07 1005.79 1005.49 1005.18 1004.89 1004.62 1004.40 1004.24 1004.15 1004.13 1004.19 1004.30 1004.46 1004.67 1004.91 1005.19 1005.50 1005.86 1006.25 1006.69 1007.17 1007.69 1008.24 1008.82 1009.41 1010.01 1010.61 1011.21 1011.80 1012.38 1012.94 1013.47 1013.99 1014.49 1014.96 1015.42
1007.67 1007.39 1007.16 1006.95 1006.76 1006.56 1006.34 1006.10 1005.83 1005.55 1005.26 1004.98 1004.73 1004.52 1004.36 1004.25 1004.20 1004.19 1004.23 1004.32 1004.44 1004.61 1004.83 1005.11 1005.44 1005.82 1006.26 1006.74 1007.26 1007.80 1008.35 1008.92 1009.49 1010.06 1010.63 1011.20 1011.77 1012.32 1012.85 1013.37 1013.87 1014.35 1014.81
1007.62 1007.34 1007.11 1006.93 1006.75 1006.58 1006.38 1006.15 1005.90 1005.63 1005.35 1005.10 1004.87 1004.68 1004.54 1004.44 1004.37 1004.34 1004.34 1004.37 1004.44 1004.55 1004.72 1004.95 1005.24 1005.60 1006.01 1006.47 1006.95 1007.46 1007.98 1008.51 1009.04 1009.58 1010.12 1010.67 1011.21 1011.75 1012.27 1012.77 1013.25 1013.71 1014.17
1007.69 1007.40 1007.17 1006.99 1006.83 1006.67 1006.48 1006.27 1006.02 1005.77 1005.51 1005.28 1005.07 1004.92 1004.80 1004.72 1004.66 1004.63 1004.62 1004.62 1004.65 1004.73 1004.85 1005.03 1005.28 1005.59 1005.95 1006.36 1006.80 1007.26 1007.73 1008.21 1008.70 1009.21 1009.72 1010.23 1010.75 1011.26 1011.76 1012.23 1012.67 1013.10 1013.51
1007.87 1007.56 1007.33 1007.15 1007.00 1006.84 1006.66 1006.46 1006.22 1005.98 1005.74 1005.53 1005.35 1005.22 1005.13 1005.08 1005.04 1005.03 1005.02 1005.01 1005.03 1005.08 1005.17 1005.31 1005.51 1005.77 1006.07 1006.42 1006.79 1007.19 1007.60 1008.03 1008.48 1008.94 1009.42 1009.91 1010.41 1010.88 1011.34 1011.76 1012.16 1012.52 1012.88
1008.10 1007.78 1007.55 1007.37 1007.22 1007.07 1006.90 1006.70 1006.48 1006.25 1006.03 1005.83 1005.67 1005.57 1005.50 1005.47 1005.46 1005.46 1005.47 1005.47 1005.49 1005.53 1005.60 1005.71 1005.86 1006.06 1006.31 1006.59 1006.89 1007.22 1007.57 1007.95 1008.35 1008.78 1009.23 1009.69 1010.15 1010.60 1011.01 1011.39 1011.71 1012.01 1012.28
1008.33 1008.01 1007.77 1007.60 1007.45 1007.31 1007.15 1006.97 1006.76 1006.55 1006.33 1006.15 1006.01 1005.91 1005.86 1005.84 1005.85 1005.87 1005.89 1005.92 1005.95 1005.99 1006.05 1006.14 1006.26 1006.42 1006.60 1006.81 1007.05 1007.31 1007.60 1007.92 1008.28 1008.67 1009.10 1009.53 1009.97 1010.38 1010.75 1011.07 1011.34 1011.56 1011.75
1008.50 1008.19 1007.96 1007.79 1007.65 1007.52 1007.38 1007.21 1007.02 1006.82 1006.62 1006.44 1006.30 1006.21 1006.16 1006.15 1006.17 1006.20 1006.24 1006.29 1006.34 1006.39 1006.46 1006.54 1006.65 1006.76 1006.90 1007.06 1007.23 1007.43 1007.66 1007.93 1008.24 1008.60 1008.99 1009.40 1009.81 1010.19 1010.53 1010.80 1011.01 1011.17 1011.29
1008.59 1008.29 1008.07 1007.90 1007.78 1007.66 1007.54 1007.39 1007.22 1007.03 1006.85 1006.68 1006.54 1006.44 1006.39 1006.38 1006.39 1006.44 1006.49 1006.56 1006.63 1006.71 1006.79 1006.88 1006.98 1007.08 1007.18 1007.30 1007.42 1007.56 1007.73 1007.95 1008.21 1008.53 1008.88 1009.26 1009.64 1010.00 1010.30 1010.54 1010.71 1010.82 1010.90
1008.59 1008.31 1008.10 1007.94 1007.83 1007.73 1007.62 1007.50 1007.35 1007.18 1007.01 1006.85 1006.71 1006.61 1006.56 1006.54 1006.55 1006.60 1006.67 1006.75 1006.84 1006.95 1007.05 1007.16 1007.26 1007.36 1007.45 1007.53 1007.61 1007.71 1007.83 1007.99 1008.20 1008.47 1008.78 1009.11 1009.46 1009.78 1010.06 1010.28 1010.43 1010.51 1010.56
1008.53 1008.26 1008.06 1007.92 1007.82 1007.73 1007.65 1007.54 1007.42 1007.28 1007.13 1006.98 1006.86 1006.76 1006.70 1006.67 1006.69 1006.73 1006.81 1006.90 1007.02 1007.14 1007.27 1007.40 1007.51 1007.62 1007.70 1007.76 1007.82 1007.88 1007.95 1008.06 1008.21 1008.42 1008.67 1008.96 1009.26 1009.55 1009.80 1010.00 1010.14 1010.23 1010.27
1008.43 1008.19 1008.01 1007.87 1007.78 1007.71 1007.64 1007.56 1007.46 1007.35 1007.22 1007.10 1007.00 1006.91 1006.86 1006.83 1006.85 1006.89 1006.96 1007.06 1007.19 1007.33 1007.47 1007.62 1007.75 1007.87 1007.96 1008.02 1008.06 1008.09 1008.12 1008.18 1008.27 1008.41 1008.60 1008.82 1009.06 1009.30 1009.52 1009.71 1009.85 1009.94 1010.00
1008.35 1008.12 1007.95 1007.83 1007.74 1007.68 1007.62 1007.56 1007.49 1007.41 1007.32 1007.23 1007.15 1007.09 1007.05 1007.04 1007.05 1007.09 1007.16 1007.26 1007.38 1007.52 1007.68 1007.84 1007.99 1008.12 1008.22 1008.28 1008.32 1008.33 1008.33 1008.34 1008.37 1008.44 1008.55 1008.70 1008.87 1009.06 1009.24 1009.40 1009.54 1009.64 1009.73
1008.29 1008.07 1007.91 1007.79 1007.70 1007.64 1007.59 1007.55 1007.50 1007.45 1007.40 1007.36 1007.32 1007.29 1007.27 1007.27 1007.29 1007.33 1007.38 1007.47 1007.58 1007.71 1007.87 1008.03 1008.19 1008.33 1008.44 1008.52 1008.56 1008.57 1008.55 1008.52 1008.50 1008.50 1008.53 1008.60 1008.69 1008.81 1008.94 1009.07 1009.20 1009.31 1009.41
1008.23 1008.03 1007.87 1007.74 1007.65 1007.58 1007.54 1007.50 1007.47 1007.45 1007.44 1007.44 1007.44 1007.45 1007.46 1007.48 1007.50 1007.53 1007.58 1007.64 1007.73 1007.85 1007.99 1008.14 1008.30 1008.46 1008.59 1008.68 1008.74 1008.75 1008.73 1008.68 1008.62 1008.56 1008.52 1008.50 1008.52 1008.56 1008.62 1008.71 1008.81 1008.91 1009.03
1008.14 1007.95 1007.78 1007.65 1007.54 1007.46 1007.40 1007.37 1007.35 1007.35 1007.37 1007.41 1007.45 1007.50 1007.54 1007.58 1007.61 1007.64 1007.67 1007.72 1007.78 1007.87 1007.99 1008.13 1008.29 1008.45 1008.59 1008.71 1008.79 1008.82 1008.80 1008.74 1008.66 1008.56 1008.46 1008.37 1008.31 1008.28 1008.28 1008.31 1008.36 1008.45 1008.55
1007.99 1007.79 1007.61 1007.46 1007.33 1007.23 1007.15 1007.10 1007.09 1007.10 1007.15 1007.21 1007.29 1007.37 1007.44 1007.50 1007.54 1007.57 1007.60 1007.62 1007.66 1007.73 1007.82 1007.95 1008.10 1008.26 1008.42 1008.56 1008.66 1008.71 1008.71 1008.66 1008.57 1008.45 1008.31 1008.17 1008.05 1007.95 1007.88 1007.85 1007.86 1007.90 1007.98
1007.74 1007.53 1007.33 1007.15 1006.99 1006.86 1006.75 1006.69 1006.66 1006.68 1006.73 1006.81 1006.91 1007.02 1007.12 1007.20 1007.26 1007.30 1007.32 1007.33 1007.36 1007.40 1007.48 1007.59 1007.73 1007.89 1008.05 1008.21 1008.33 1008.41 1008.43 1008.40 1008.32 1008.19 1008.04 1007.87 1007.70 1007.55 1007.43 1007.34 1007.29 1007.29 1007.32
1007.40 1007.16 1006.93 1006.71 1006.52 1006.35 1006.22 1006.13 1006.09 1006.09 1006.14 1006.23 1006.34 1006.46 1006.58 1006.69 1006.76 1006.81 1006.85 1006.86 1006.88 1006.92 1006.98 1007.08 1007.21 1007.36 1007.52 1007.68 1007.81 1007.91 1007.96 1007.95 1007.89 1007.77 1007.62 1007.45 1007.26 1007.08 1006.92 1006.79 1006.69 1006.64 1006.62
1006.98 1006.71 1006.44 1006.20 1005.97 1005.77 1005.60 1005.48 1005.41 1005.39 1005.43 1005.51 1005.63 1005.76 1005.89 1006.01 1006.11 1006.18 1006.23 1006.26 1006.29 1006.33 1006.39 1006.47 1006.59 1006.72 1006.87 1007.02 1007.16 1007.27 1007.33 1007.34 1007.30 1007.21 1007.07 1006.91 1006.73 1006.55 1006.37 1006.21 1006.08 1005.98 1005.92
1006.53 1006.22 1005.93 1005.65 1005.39 1005.16 1004.96 1004.81 1004.71 1004.67 1004.69 1004.75 1004.86 1004.99 1005.13 1005.26 1005.38 1005.48 1005.55 1005.61 1005.65 1005.70 1005.76 1005.84 1005.93 1006.05 1006.18 1006.31 1006.43 1006.52 1006.59 1006.61 1006.59 1006.53 1006.43 1006.29 1006.14 1005.97 1005.80 1005.63 1005.48 1005.35 1005.24
Thickness
5709 5708 5707 5706 5705 5704 5703 5702 5701 5700 5700 5700 5699 5699 5698 5696 5696 5695 5695 5695 5695 5696 5696 5696 5696 5696 5696 5695 5695 5695 5695 5695 5695 5695 5695 5695 5696 5696 5697 5697 5697 5698 5698
5704 5702 5700 5699 5698 5698 5697 5696 5695 5694 5694 5694 5694 5693 5693 5691 5691 5690 5690 5690 5690 5690 5691 5691 5691 5691 5691 5691 5691 5692 5692 5691 5691 5691 5691 5692 5692 5693 5694 5694 5695 5695 5695
5698 5696 5694 5693 5692 5692 5691 5689 5688 5687 5687 5687 5687 5687 5686 5686 5685 5685 5684 5684 5684 5685 5686 5686 5686 5686 5687 5687 5687 5688 5688 5688 5688 5688 5688 5689 5689 5690 5691 5691 5692 5692 5693
5692 5690 5688 5686 5686 5685 5684 5682 5681 5679 5679 5679 5679 5680 5680 5680 5680 5679 5679 5679 5679 5680 5681 5681 5682 5682 5682 5683 5683 5684 5684 5684 5685 5685 5685 5685 5686 5686 5687 5688 5689 5689 5690
5687 5684 5682 5680 5679 5678 5677 5676 5674 5673 5672 5672 5673 5673 5674 5674 5674 5674 5674 5674 5674 5675 5676 5676 5677 5678 5678 5679 5679 5679 5681 5681 5682 5682 5682 5682 5682 5683 5684 5685 5685 5686 5686
5682 5679 5676 5674 5672 5670 5669 5668 5667 5666 5665 5665 5666 5666 5667 5668 5669 5669 5669 5670 5669 5670 5670 5671 5671 5672 5674 5674 5675 5676 5677 5678 5678 5678 5678 5678 5679 5680 5680 5681 5682 5682 5682
5676 5673 5670 5668 5666 5664 5662 5661 5660 5659 5658 5657 5657 5657 5659 5661 5663 5664 5664 5663 5663 5664 5665 5665 5665 5666 5668 5669 5670 5671 5672 5673 5674 5674 5674 5675 5675 5676 5676 5677 5678 5678 5678
5670 5668 5664 5662 5661 5659 5657 5654 5652 5651 5650 5650 5649 5648 5648 5650 5654 5657 5657 5657 5658 5658 5658 5658 5659 5660 5661 5663 5664 5666 5667 5668 5669 5669 5670 5670 5671 5671 5672 5672 5673 5673 5674
5665 5663 5660 5657 5655 5653 5650 5648 5647 5645 5643 5643 5643 5642 5640 5641 5643 5647 5649 5650 5650 5651 5651 5652 5652 5653 5655 5656 5658 5660 5662 5663 5663 5664 5665 5666 5666 5667 5667 5667 5668 5668 5669
5660 5658 5655 5653 5650 5647 5645 5643 5642 5640 5638 5636 5636 5636 5636 5636 5634 5636 5639 5641 5643 5644 5644 5645 5646 5647 5648 5650 5652 5655 5656 5658 5658 5659 5660 5661 5661 5661 5661 5662 5662 5663 5664
5655 5653 5651 5647 5644 5641 5639 5637 5635 5634 5632 5631 5630 5629 5628 5628 5628 5628 5629 5631 5634 5637 5638 5639 5640 5641 5643 5645 5647 5649 5650 5651 5652 5653 5654 5655 5655 5655 5655 5656 5656 5657 5658
5650 5648 5645 5642 5639 5636 5633 5631 5629 5628 5627 5625 5624 5623 5622 5622 5622 5622 5623 5623 5625 5629 5631 5633 5634 5636 5637 5639 5641 5643 5644 5645 5646 5646 5647 5648 5649 5649 5649 5650 5650 5651 5651
5644 5642 5640 5637 5633 5631 5628 5626 5624 5623 5621 5620 5619 5618 5617 5617 5618 5618 5617 5617 5618 5622 5624 5627 5629 5629 5631 5633 5635 5636 5638 5638 5639 5640 5640 5641 5642 5642 5642 5643 5643 5644 5644
5640 5639 5636 5632 5629 5626 5624 5621 5620 5618 5617 5615 5615 5614 5612 5613 5613 5613 5613 5613 5614 5615 5618 5620 5622 5623 5625 5626 5628 5630 5631 5632 5633 5634 5634 5634 5634 5634 5635 5635 5636 5637 5637
5637 5635 5632 5629 5626 5623 5621 5618 5617 5615 5613 5612 5611 5610 5609 5609 5609 5609 5610 5610 5610 5611 5612 5613 5615 5618 5618 5620 5621 5623 5624 5626 5627 5627 5628 5628 5628 5628 5628 5628 5628 5629 5629
5634 5632 5629 5626 5622 5620 5618 5615 5614 5612 5610 5609 5608 5607 5606 5606 5606 5606 5606 5605 5605 5606 5606 5608 5608 5610 5612 5613 5614 5615 5617 5618 5619 5620 5621 5621 5621 5621 5621 5621 5621 5620 5621
5631 5629 5627 5623 5621 5618 5615 5613 5611 5609 5607 5606 5605 5604 5603 5602 5602 5601 5601 5600 5600 5601 5601 5602 5602 5603 5604 5605 5607 5608 5609 5611 5612 5613 5614 5614 5614 5613 5613 5613 5612 5612 5612
5629 5627 5624 5621 5619 5616 5613 5610 5608 5607 5605 5603 5602 5601 5600 5600 5598 5597 5596 5596 5596 5596 5596 5597 5597 5597 5598 5599 5600 5600 5602 5604 5605 5606 5606 5606 5606 5605 5605 5605 5604 5604 5604
5627 5625 5622 5619 5616 5613 5611 5609 5606 5604 5603 5602 5601 5600 5598 5597 5596 5595 5594 5593 5592 5592 5591 5591 5591 5590 5591 5592 5592 5593 5594 5596 5597 5598 5598 5599 5598 5597 5596 5596 5596 5596 5597
5625 5622 5619 5616 5614 5612 5609 5607 5605 5603 5602 5601 5600 5598 5597 5596 5594 5593 5591 5590 5589 5587 5586 5586 5585 5585 5585 5585 5584 5586 5587 5588 5589 5590 5590 5590 5590 5588 5588 5588 5589 5589 5590
5623 5619 5617 5614 5612 5610 5608 5605 5603 5602 5601 5599 5598 5597 5596 5595 5594 5592 5590 5588 5586 5585 5583 5582 5581 5580 5580 5579 5579 5579 5580 5581 5581 5582 5582 5583 5582 5581 5580 5580 5581 5581 5582
5619 5616 5614 5611 5609 5608 5606 5604 5602 5600 5599 5597 5596 5595 5594 5593 5592 5590 5589 5587 5585 5583 5581 5579 5578 5576 5576 5576 5574 5575 5574 5574 5575 5575 5574 5574 5574 5573 5573 5573 5574 5574 5575
5616 5614 5611 5609 5607 5606 5604 5602 5600 5598 5596 5595 5594 5593 5593 5592 5590 5589 5587 5585 5583 5581 5579 5577 5575 5574 5573 5572 5570 5570 5569 5568 5568 5568 5566 5567 5566 5566 5567 5567 5568 5568 5568
5614 5611 5609 5607 5606 5604 5603 5601 5599 5597 5595 5593 5592 5591 5590 5589 5589 5587 5586 5584 5582 5580 5577 5576 5574 5572 5570 5569 5567 5566 5564 5562 5561 5560 5560 5560 5560 5560 5561 5561 5561 5561 5561
5613 5610 5608 5607 5605 5604 5602 5600 5598 5596 5594 5592 5591 5590 5589 5587 5586 5585 5584 5582 5580 5578 5576 5574 5572 5569 5567 5565 5563 5561 5559 5558 5558 5557 5555 5554 5555 5554 5554 5554 5554 5554 5554
5612 5610 5609 5607 5605 5603 5601 5599 5597 5595 5592 5591 5590 5588 5587 5586 5585 5583 5582 5580 5578 5576 5574 5572 5569 5567 5564 5562 5559 5557 5556 5554 5554 5553 5551 5549 5549 5548 5549 5548 5547 5547 5547